Temperature
23 21 22 22 23 24 24 24 24 24 24 24 23 23 22 22 22 22 22 22 22 22 22 22 22 22 22 21 21 21 21 21 21 20 20 20 20 20 19 19 19 19 19 19
22 22 23 24 24 24 24 23 23 24 24 24 23 23 23 22 22 22 22 22 22 23 22 22 22 22 22 22 22 21 21 21 21 21 20 20 20 20 19 19 19 19 19 19
23 24 25 25 24 24 24 23 24 24 24 23 23 23 22 23 23 23 23 23 23 23 23 23 22 22 22 22 22 21 21 21 21 21 20 20 20 20 19 19 19 19 19 19
23 24 25 25 24 24 23 24 24 24 23 22 23 22 22 21 21 22 22 22 22 23 23 23 22 22 22 22 22 21 21 21 21 21 20 20 20 20 20 19 19 19 19 19
23 25 25 25 25 25 24 24 24 23 22 21 22 21 21 21 21 21 21 22 22 23 23 23 23 23 22 22 22 22 21 21 21 20 20 20 20 20 19 19 19 19 19 19
24 25 25 25 25 25 25 23 22 20 20 21 22 21 21 20 21 21 21 22 22 22 23 23 23 23 22 22 22 22 21 21 21 20 20 20 20 20 19 19 19 19 19 19
24 25 25 25 25 25 24 22 21 22 20 20 20 21 20 21 21 21 21 22 22 22 22 23 23 22 22 22 22 22 22 21 21 20 20 20 20 20 19 19 19 19 19 19
23 23 25 25 25 24 23 22 21 22 21 20 20 20 21 22 22 22 22 22 22 22 22 23 23 23 22 22 22 22 22 21 21 21 20 20 20 19 19 19 19 19 19 19
22 23 24 25 25 24 23 21 21 19 20 20 20 20 21 22 21 21 21 21 21 22 22 22 22 22 22 22 22 22 22 22 21 21 20 20 20 19 19 19 19 19 19 18
22 23 24 24 25 24 23 20 19 19 20 21 21 21 20 21 21 20 20 20 21 22 22 22 22 22 22 22 22 22 22 22 21 21 21 20 20 20 19 19 19 18 18 18
22 22 23 23 24 24 22 21 19 18 19 20 20 21 21 20 20 20 20 21 21 21 22 22 22 22 22 22 22 22 21 21 21 21 20 20 20 19 19 19 19 18 18 18
20 20 21 22 23 23 23 21 19 21 19 18 19 20 22 20 20 20 20 20 21 21 22 22 22 22 22 21 21 21 21 21 21 20 20 20 19 19 19 18 18 18 18 18
20 19 20 22 22 22 22 21 19 18 17 17 19 21 21 19 19 20 20 20 20 21 21 21 21 21 21 21 21 21 21 21 20 20 20 19 19 19 19 18 18 18 18 17
20 18 20 22 22 22 22 22 20 19 18 18 19 20 20 19 18 19 19 20 20 20 21 21 21 21 21 21 21 21 21 20 20 20 19 19 19 19 18 18 18 18 17 17
19 19 20 20 21 21 21 21 21 20 19 20 20 19 20 19 18 19 19 19 19 19 20 20 20 20 20 21 21 21 20 20 20 19 19 19 19 18 18 18 18 17 17 17
17 19 20 21 21 21 21 21 21 20 20 20 20 20 19 19 19 18 19 19 19 19 20 20 20 20 20 20 20 20 20 20 19 19 19 19 19 18 18 18 17 17 17 17
16 18 19 19 20 21 21 20 20 20 20 20 20 20 18 18 18 18 19 19 19 19 20 20 20 20 20 20 20 20 20 19 19 19 19 18 18 18 18 17 17 17 17 16
16 16 16 17 20 21 20 19 20 19 19 19 19 18 18 18 18 19 19 19 19 20 20 20 20 20 20 19 19 19 19 19 19 18 18 18 18 17 17 17 17 17 16 16
15 16 15 16 18 19 19 19 19 19 19 18 18 18 18 18 18 18 19 19 20 20 20 20 20 19 19 19 19 19 19 19 19 18 18 18 17 17 17 17 17 16 16 16
14 14 15 16 18 18 19 19 19 19 19 18 18 17 17 18 17 17 19 19 19 19 19 19 19 19 19 19 19 19 18 18 18 18 18 17 17 17 17 16 16 16 16 15
16 15 15 16 17 17 18 18 19 19 19 18 18 18 17 17 17 18 18 19 19 19 19 19 19 19 18 18 18 18 18 18 18 17 17 17 16 16 16 16 16 15 15 15
15 15 15 15 17 18 17 17 17 17 18 18 18 18 18 18 18 18 18 18 18 18 18 18 18 18 18 18 17 17 17 17 17 17 16 16 16 16 16 16 15 15 15 14
14 14 14 15 15 16 16 17 18 18 17 18 18 18 18 18 18 18 17 17 18 17 17 17 17 17 17 17 17 17 16 16 16 16 16 16 16 15 15 15 14 14 14 14
14 13 13 14 15 15 16 17 17 18 18 18 18 18 18 18 17 17 17 17 17 17 17 16 16 16 16 16 16 16 16 16 16 15 15 15 15 15 14 14 14 14 14 13
14 13 13 14 14 15 17 17 17 18 18 18 18 18 18 18 17 17 17 17 16 16 16 16 16 16 16 16 16 15 15 15 15 15 15 14 14 14 14 13 13 13 13 13
12 13 13 14 15 14 16 17 17 17 18 18 18 17 17 18 17 17 17 16 16 16 16 16 15 15 15 15 15 15 14 14 14 14 14 14 14 13 13 13 13 13 13 12
Wind_Speed
3 3 4 7 8 5 4 3 3 4 2 3 5 5 4 7 8 9 9 9 10 10 8 7 7 7 7 6 6 6 6 5 4 3 3 2 1 1 0 1 1 2 2 3
3 5 9 5 5 3 3 3 3 3 1 2 2 3 3 7 10 11 12 12 11 9 6 7 7 7 7 8 7 7 7 6 5 4 3 2 2 1 1 1 0 1 2 3
7 7 4 4 4 4 4 6 5 3 2 3 2 4 2 3 4 6 8 9 9 10 9 9 9 8 7 7 8 8 7 6 5 5 3 3 2 2 1 1 0 1 1 2
5 5 3 4 5 6 5 6 5 3 3 1 1 3 5 3 3 6 7 7 8 8 8 8 9 9 9 9 8 7 6 6 5 6 5 5 4 3 3 2 1 0 0 1
6 4 3 5 6 7 5 2 3 3 3 1 1 2 7 1 4 7 7 7 7 8 9 9 10 10 9 8 7 7 6 5 5 6 7 6 4 3 2 1 1 0 0 0
6 4 5 5 3 6 5 6 6 6 5 1 3 3 6 4 7 6 7 7 7 7 7 7 8 7 6 6 6 6 7 6 5 6 6 7 6 5 3 2 2 1 0 1
4 4 3 3 2 1 5 6 4 4 3 5 2 3 8 7 6 7 7 7 6 6 6 6 7 7 8 8 7 7 7 7 6 6 7 7 6 6 6 5 4 3 2 1
3 6 4 4 6 6 5 9 8 5 5 4 1 5 7 5 4 3 4 4 5 5 5 7 7 7 7 7 7 7 8 7 7 7 7 6 6 5 4 5 4 4 3 3
7 6 5 4 4 9 6 4 6 7 3 0 5 6 8 2 1 1 3 4 5 5 6 6 6 6 7 7 7 7 8 7 7 8 7 6 6 6 6 5 4 3 3 3
10 5 5 3 4 3 6 9 6 6 6 3 5 5 5 5 4 3 4 5 5 4 4 4 4 4 5 6 6 5 6 7 6 6 7 7 6 6 5 5 4 4 3 3
7 6 4 3 3 5 4 5 5 5 6 7 4 7 5 7 6 6 6 5 5 5 4 4 3 4 3 3 4 5 5 5 5 5 5 5 5 5 4 4 4 4 4 4
5 6 3 6 4 3 5 7 8 6 5 5 5 7 4 4 4 5 4 3 3 4 4 3 3 3 3 3 3 4 5 5 5 5 4 4 4 4 4 4 4 4 4 4
7 6 2 5 5 1 2 3 5 6 6 6 5 6 2 2 1 3 4 3 3 3 3 3 3 3 3 2 3 3 3 4 4 4 5 4 4 4 5 5 4 4 4 4
6 5 6 9 8 4 2 3 5 6 5 6 7 6 4 2 2 2 3 3 3 3 3 3 3 3 3 3 3 3 2 2 3 4 4 5 5 5 5 4 4 3 4 4
5 4 3 4 3 3 2 2 5 6 8 8 8 7 8 6 5 4 3 3 3 2 2 3 4 3 3 2 2 2 2 2 3 4 4 4 4 4 3 3 3 3 4 4
4 4 2 1 0 3 1 1 2 3 3 4 3 5 5 2 2 2 2 3 4 3 3 3 3 3 3 3 3 2 2 2 2 3 3 3 3 3 3 3 3 3 3 3
2 5 4 2 2 2 2 3 3 2 1 4 5 6 2 3 3 4 4 4 4 5 4 4 4 4 4 4 4 4 3 2 3 2 2 2 3 3 3 3 3 3 4 3
5 5 4 3 3 5 6 1 4 4 1 2 3 3 4 5 3 1 2 4 5 5 4 4 4 4 4 3 3 3 3 3 3 2 2 3 3 3 3 3 3 3 3 3
4 7 5 4 4 3 4 2 3 3 2 1 2 2 2 3 4 3 1 2 4 4 4 4 4 4 3 3 3 3 3 3 2 2 3 3 3 3 3 3 3 3 3 3
5 5 6 4 4 7 6 3 1 4 2 2 3 3 3 4 2 3 2 0 1 1 2 2 2 2 2 1 3 4 3 3 3 3 3 3 3 3 4 3 3 3 3 3
3 4 4 4 3 6 4 3 2 5 5 2 3 4 4 3 4 2 1 2 1 1 2 3 3 3 1 1 3 3 2 2 3 2 2 2 3 4 3 3 2 2 3 3
4 4 3 4 3 6 2 2 4 5 1 2 3 3 3 3 2 2 3 3 3 4 4 3 3 3 2 2 3 2 0 2 1 2 2 3 2 2 3 3 2 2 2 2
3 5 5 6 5 3 2 3 2 2 2 2 3 3 4 4 3 3 3 3 3 4 4 3 4 4 3 3 3 2 1 1 0 1 1 2 2 2 2 3 2 2 2 2
1 2 3 1 3 3 2 1 1 2 3 2 3 4 4 4 4 4 3 3 3 3 3 3 4 4 3 2 2 0 1 1 1 1 0 1 2 2 1 2 2 3 3 3
3 2 2 1 3 3 3 2 1 1 2 3 3 3 4 6 4 4 3 3 2 2 2 3 3 2 1 2 2 2 2 2 2 1 1 1 2 2 2 1 2 3 3 5
3 5 5 5 5 4 4 3 1 1 1 3 3 3 2 4 5 4 3 2 3 2 2 2 2 1 1 2 3 3 2 2 2 1 1 1 1 1 1 1 1 2 2 4
Wind_Direction
117 97 221 214 198 201 192 201 251 256 212 172 217 239 220 191 187 195 201 200 206 216 216 201 192 182 176 180 184 187 185 183 161 148 155 160 196 213 197 199 203 194 180 161
67 242 235 211 195 190 186 218 253 294 302 168 224 267 241 199 200 200 201 205 207 209 198 197 193 185 183 186 190 189 187 180 175 171 163 154 151 167 190 212 179 202 188 172
192 234 206 183 197 207 222 206 218 216 27 43 47 320 264 234 211 216 215 211 206 204 201 199 193 194 188 194 196 198 192 182 179 164 134 114 88 60 54 18 297 275 198 173
228 251 200 195 211 180 239 226 196 173 113 306 80 278 283 245 232 224 223 209 207 210 203 197 192 191 196 201 193 191 185 180 174 163 161 160 165 182 204 207 211 273 173 162
237 223 194 209 215 176 211 133 127 127 131 55 15 185 284 272 238 238 223 209 206 206 199 195 193 194 198 195 186 182 176 180 176 174 177 174 174 185 182 168 153 165 359 235
240 236 204 206 199 162 136 76 60 56 75 304 246 183 274 239 229 233 221 211 200 196 192 188 186 186 188 183 179 174 174 188 186 182 181 181 180 178 170 187 195 205 239 286
300 295 247 168 131 90 111 99 42 6 9 251 257 194 249 253 237 216 211 210 198 185 184 182 175 182 186 182 184 181 182 196 193 186 190 190 188 186 189 197 196 192 202 223
195 281 249 196 178 182 174 147 160 190 216 269 302 234 254 264 259 217 195 187 169 166 175 182 183 181 181 183 185 183 187 198 194 192 198 193 187 196 205 203 195 194 204 212
181 243 273 231 189 147 147 172 159 132 137 219 277 284 300 315 346 140 148 148 163 173 174 171 174 180 182 181 186 187 186 193 194 194 194 189 193 199 204 201 193 193 202 201
163 221 282 289 88 59 140 143 111 129 150 226 281 272 255 259 245 206 181 182 185 175 172 169 170 174 187 185 182 182 188 193 191 190 194 196 196 198 198 191 191 193 196 189
150 174 289 8 168 180 113 112 118 124 151 160 228 266 233 216 209 201 203 194 187 184 181 177 180 170 161 156 164 176 187 185 180 188 191 190 189 186 183 185 189 188 184 181
152 138 229 262 259 187 164 165 153 158 199 173 178 260 278 211 211 198 197 179 175 174 172 161 151 136 131 145 162 182 189 190 190 187 180 185 184 172 177 194 196 188 185 184
138 124 105 336 334 9 137 160 155 133 125 155 173 254 326 79 151 189 178 173 175 166 150 135 127 136 146 165 174 188 200 200 188 174 176 184 187 184 196 207 200 190 184 178
124 121 167 198 217 202 195 178 156 138 157 189 213 234 278 258 207 207 186 182 171 154 144 146 147 153 164 179 185 195 214 203 180 175 182 192 197 199 204 209 193 187 182 181
108 148 192 223 224 162 182 205 176 178 184 186 217 217 243 236 207 193 176 161 162 169 165 169 170 172 167 169 177 188 199 195 184 176 187 202 200 191 187 188 186 181 182 188
82 142 138 330 336 150 121 331 171 185 182 197 202 248 245 194 151 156 166 168 188 207 199 190 180 177 184 190 191 180 181 176 152 171 191 186 173 177 183 187 184 178 181 179
102 130 130 218 278 94 267 247 202 183 184 184 211 237 179 149 172 191 197 197 207 217 213 206 203 201 205 205 196 193 190 161 145 156 162 162 174 177 180 179 168 183 190 185
140 124 131 146 123 205 234 239 171 159 208 218 219 218 182 172 165 177 186 190 211 218 217 220 214 213 212 206 195 177 152 144 154 168 178 175 174 185 182 170 180 192 193 193
153 140 127 133 169 243 282 236 171 170 262 263 201 196 132 126 78 18 349 192 212 219 211 214 211 208 193 187 179 151 146 150 160 195 206 196 187 186 179 188 198 196 190 200
71 99 121 131 160 216 235 249 199 124 271 260 183 178 137 111 115 265 312 284 211 203 187 175 156 125 136 170 143 141 166 174 204 219 221 202 190 187 188 198 201 196 191 207
60 60 114 146 193 252 257 277 126 159 229 221 174 169 154 166 197 205 22 32 57 83 88 99 109 105 120 138 131 146 156 211 233 221 199 190 191 189 184 185 190 185 188 189
160 144 160 146 179 244 274 118 168 208 214 164 161 152 147 146 118 86 60 49 57 62 64 81 92 79 58 85 110 110 203 271 253 185 182 192 191 190 182 175 186 177 173 181
182 185 182 185 209 254 241 202 232 164 174 189 166 164 152 141 122 100 85 77 68 65 58 66 92 86 65 69 93 104 300 322 348 174 200 195 168 172 164 168 175 175 178 192
263 120 131 241 281 294 288 315 339 175 185 179 162 153 147 145 138 122 108 86 71 64 66 68 76 74 53 38 54 88 323 97 126 168 197 136 144 143 143 159 175 186 196 210
225 141 123 261 285 329 334 336 335 40 97 105 103 121 147 137 131 126 118 102 91 72 75 93 98 88 47 34 19 15 27 81 103 99 94 131 154 155 165 178 203 211 219 215
208 175 170 215 218 194 250 284 350 88 126 138 121 103 117 142 146 138 136 130 117 110 97 91 90 72 22 20 8 3 27 84 110 100 106 165 166 150 166 169 305 293 252 252
Height
1496 1502 1506 1503 1501 1502 1505 1509 1511 1506 1499 1503 1505 1505 1502 1502 1504 1506 1508 1509 1510 1511 1513 1516 1518 1520 1522 1524 1526 1527 1528 1530 1531 1532 1533 1534 1535 1535 1536 1537 1537 1537 1538 1538
1501 1504 1495 1494 1496 1500 1504 1509 1510 1505 1499 1502 1506 1505 1501 1500 1501 1502 1504 1505 1507 1509 1511 1513 1516 1518 1520 1522 1524 1526 1527 1529 1530 1531 1533 1534 1535 1535 1536 1537 1537 1537 1537 1538
1500 1495 1490 1493 1497 1501 1503 1507 1506 1507 1503 1503 1506 1509 1504 1500 1500 1501 1502 1503 1504 1507 1509 1511 1513 1515 1518 1520 1522 1524 1526 1528 1529 1531 1532 1533 1534 1534 1535 1536 1536 1537 1537 1537
1494 1489 1489 1493 1495 1498 1506 1496 1498 1503 1511 1518 1513 1527 1509 1503 1501 1499 1500 1501 1502 1505 1506 1508 1511 1513 1516 1518 1520 1523 1525 1527 1528 1530 1531 1531 1532 1533 1533 1534 1535 1535 1536 1536
1492 1487 1488 1492 1491 1492 1496 1493 1498 1503 1512 1520 1518 1525 1516 1505 1504 1499 1497 1498 1499 1501 1503 1505 1508 1510 1513 1516 1519 1521 1523 1525 1527 1528 1529 1530 1531 1531 1532 1533 1533 1534 1535 1535
1486 1483 1483 1484 1484 1486 1490 1497 1504 1513 1520 1532 1521 1526 1521 1508 1500 1495 1494 1494 1495 1497 1500 1502 1506 1508 1511 1514 1516 1519 1521 1523 1525 1526 1527 1528 1529 1529 1530 1531 1532 1533 1533 1533
1490 1484 1481 1481 1487 1488 1492 1509 1529 1532 1540 1536 1521 1523 1517 1495 1491 1490 1490 1491 1493 1495 1497 1500 1503 1505 1508 1511 1514 1516 1518 1520 1521 1523 1524 1525 1526 1528 1528 1529 1530 1531 1531 1532
1500 1500 1482 1479 1483 1490 1494 1503 1526 1538 1541 1535 1522 1523 1505 1490 1487 1487 1488 1489 1491 1494 1495 1498 1501 1503 1506 1509 1512 1513 1515 1517 1518 1520 1521 1523 1524 1525 1526 1527 1528 1529 1529 1530
1499 1498 1479 1476 1476 1482 1495 1502 1503 1522 1529 1535 1528 1515 1499 1487 1487 1487 1487 1488 1490 1492 1494 1496 1499 1502 1504 1506 1509 1511 1512 1513 1515 1517 1519 1520 1521 1523 1524 1525 1526 1526 1527 1528
1484 1493 1481 1476 1476 1480 1484 1495 1510 1522 1535 1538 1527 1520 1511 1494 1490 1488 1487 1487 1489 1490 1492 1495 1497 1499 1502 1504 1506 1508 1509 1510 1513 1514 1516 1517 1518 1519 1521 1522 1523 1524 1525 1526
1477 1490 1487 1482 1483 1486 1490 1497 1506 1517 1520 1533 1536 1521 1491 1488 1486 1486 1486 1486 1488 1490 1491 1493 1496 1498 1500 1502 1504 1506 1507 1508 1511 1512 1513 1515 1516 1517 1518 1520 1521 1522 1523 1523
1477 1489 1497 1488 1478 1477 1481 1488 1500 1511 1519 1522 1526 1515 1482 1482 1483 1484 1485 1486 1487 1489 1491 1493 1495 1497 1499 1500 1502 1504 1505 1506 1508 1510 1511 1512 1513 1515 1516 1517 1518 1519 1520 1521
1475 1489 1503 1499 1492 1483 1483 1486 1491 1499 1512 1522 1523 1508 1482 1482 1483 1483 1484 1485 1487 1489 1490 1492 1494 1496 1497 1499 1501 1502 1503 1504 1506 1507 1508 1509 1511 1512 1513 1514 1515 1516 1517 1518
1469 1486 1494 1500 1494 1485 1485 1485 1488 1496 1509 1515 1509 1498 1487 1484 1483 1483 1484 1485 1486 1488 1489 1491 1492 1494 1496 1498 1499 1500 1501 1502 1504 1505 1506 1508 1508 1509 1510 1511 1511 1513 1514 1515
1469 1484 1484 1483 1479 1480 1482 1483 1484 1488 1493 1499 1495 1493 1485 1482 1482 1482 1483 1484 1486 1487 1488 1489 1491 1493 1494 1496 1497 1498 1499 1500 1501 1503 1504 1504 1505 1505 1507 1508 1509 1511 1512 1512
1472 1480 1482 1483 1479 1479 1483 1482 1482 1484 1486 1488 1487 1487 1479 1479 1480 1481 1482 1483 1484 1485 1486 1488 1489 1491 1492 1493 1495 1496 1497 1498 1499 1499 1500 1502 1502 1503 1504 1505 1507 1508 1509 1509
1476 1481 1488 1492 1483 1481 1489 1483 1482 1483 1482 1484 1486 1482 1477 1479 1479 1479 1480 1481 1482 1483 1484 1486 1487 1489 1490 1492 1493 1494 1495 1496 1497 1497 1498 1499 1500 1500 1501 1503 1504 1505 1506 1507
1476 1482 1490 1494 1490 1498 1487 1475 1476 1479 1480 1478 1477 1476 1476 1476 1477 1478 1479 1480 1481 1481 1482 1484 1485 1487 1488 1490 1491 1491 1492 1493 1494 1495 1496 1496 1497 1498 1499 1500 1501 1502 1503 1504
1471 1479 1491 1498 1498 1493 1482 1475 1475 1478 1479 1475 1475 1475 1476 1476 1476 1478 1478 1479 1480 1480 1481 1482 1483 1484 1486 1487 1488 1489 1490 1491 1492 1492 1493 1494 1495 1495 1496 1497 1498 1499 1500 1501
1473 1476 1487 1495 1496 1498 1482 1472 1471 1475 1482 1474 1473 1474 1475 1476 1481 1480 1478 1478 1479 1479 1480 1481 1482 1483 1483 1485 1486 1486 1487 1488 1489 1490 1491 1492 1492 1493 1493 1494 1495 1496 1497 1498
1480 1483 1488 1492 1493 1486 1474 1470 1471 1485 1481 1472 1472 1473 1474 1476 1477 1478 1477 1477 1478 1478 1479 1479 1480 1481 1481 1482 1483 1484 1485 1486 1487 1488 1488 1489 1489 1490 1490 1491 1492 1493 1494 1494
1481 1485 1489 1492 1492 1488 1471 1471 1474 1474 1470 1471 1471 1472 1474 1475 1475 1476 1477 1478 1477 1477 1477 1478 1479 1479 1480 1481 1481 1482 1482 1484 1485 1485 1486 1486 1486 1487 1487 1488 1489 1490 1491 1491
1478 1479 1480 1482 1482 1473 1470 1470 1470 1470 1470 1470 1471 1472 1473 1474 1475 1475 1476 1477 1477 1478 1478 1478 1478 1479 1479 1479 1480 1481 1482 1482 1482 1483 1483 1483 1483 1483 1484 1485 1485 1486 1487 1488
1475 1474 1476 1477 1473 1471 1470 1469 1468 1469 1469 1469 1471 1472 1473 1474 1474 1475 1476 1476 1477 1478 1479 1479 1479 1478 1478 1478 1478 1479 1480 1480 1480 1480 1480 1480 1480 1481 1482 1482 1483 1483 1484 1485
1473 1474 1476 1476 1472 1470 1469 1469 1468 1468 1468 1469 1471 1472 1473 1474 1474 1475 1476 1477 1477 1478 1479 1479 1479 1479 1479 1478 1478 1478 1478 1477 1477 1476 1477 1479 1478 1478 1479 1480 1481 1481 1481 1482
1470 1472 1474 1473 1469 1470 1469 1469 1468 1468 1468 1469 1470 1472 1473 1474 1474 1475 1476 1477 1478 1478 1479 1479 1478 1478 1478 1478 1477 1477 1477 1476 1475 1475 1475 1476 1476 1476 1476 1477 1477 1478 1478 1478